TELSTAR 19V

Last updated on Mon Sep 07 2026 00:03:00 GMT+0000 (Coordinated Universal Time)

1 43562U 18059A 26249.50801464 -.00000296 00000+0 00000+0 0 9990 2 43562 0.0101 171.7429 0002389 359.9187 293.8141 1.00270996 29967
UTC large
Height (km)
Speed (km/s)
/
Latitude / Longitude
Inclination (degrees)
Orbital Period (minutes)
Azimuth
Elevation
Range (km)
Doppler Factor

Next 0 passes for location: London (51.5072 / 0.1276)

No passes found over London.
TELSTAR 19V